Location: Ceske Budejovice
(48.9830°N, 14.4670°E)
Time: 11:27:24
(UTC+02:00)

ISS - Visible Passes

Search period start: 22 April 2024 00:00
Search period end: 02 May 2024 00:00
Orbit: 412 x 418 km, 51.6° (Epoch: 22 April)

Date Brightness Start Highest point End Pass type
(mag) Time Alt. Az. Time Alt. Az. Time Alt. Az.
23 Apr -1.8 04:44:13 10° S 04:46:44 20° SE 04:49:16 10° E visible
24 Apr -1.4 03:57:03 12° SSE 03:57:54 13° SE 03:59:33 10° ESE visible
25 Apr -3.0 04:42:40 16° SW 04:45:02 41° SSE 04:48:12 10° ENE visible
26 Apr -2.5 03:55:18 25° SSE 03:55:59 28° SE 03:58:53 10° E visible
27 Apr -1.5 03:07:51 16° ESE 03:07:51 16° ESE 03:09:18 10° E visible
27 Apr -3.8 04:40:41 16° WSW 04:43:14 80° SSE 04:46:34 10° ENE visible
28 Apr -3.6 03:53:08 41° SSW 03:53:58 56° SSE 03:57:15 10° ENE visible
29 Apr -2.5 03:05:29 32° ESE 03:05:29 32° ESE 03:07:49 10° ENE visible
29 Apr -3.5 04:38:18 12° W 04:41:18 65° NNW 04:44:37 10° ENE visible
30 Apr -1.0 02:17:45 13° E 02:17:45 13° E 02:18:14 10° E visible
30 Apr -3.8 03:50:34 34° WSW 03:51:51 82° NNW 03:55:12 10° ENE visible
01 May -3.6 03:02:44 65° ESE 03:02:44 65° ESE 03:05:43 10° ENE visible
01 May -3.1 04:35:55 10° W 04:39:11 52° N 04:42:28 10° ENE visible
